Content
SEND FEEDBACK

Daily
Averages
Monthly
Summary
United States of America

SHELBURNE FALLS, MASSACHUSETTS


Home > North America > United States > Massachusetts
Elevation: 400 feet     Latitude: 42 36N     Longitude: 072 44W

WEATHER
 
SELECT A DAY
Number of Records: 217,578;   Date Range: 7/1/96 - 12/16/14
 
SHARE

PRINT THIS DATA

[ ← Previous Day ]
WEATHER ALMANAC - FEBRUARY 24, 2014
[ Next Day → ]
[ °C ]   °F
Weather ElementAverageHighLow
Temperature26.2 °F35.1 °F (1:52 am)21 °F (9:52 pm)
Dewpoint9.5 °F15.1 °F (5:04 pm)3.9 °F (2:52 pm)
Humidity50.3 %72 % (5:09 pm)35 % (2:52 pm)
Barometer29.84 in29.96 in (11:52 pm)29.78 in (1:52 am)
Wind Speed14.6 mph21.9 mph (5:09 pm)
Wind Gust35.7 mph (6:52 pm)
Weather ElementAverage
Visibility9 mi
Wind DirectionWNW (287.5 °)

Weather ElementTotal
Precipitation---
Heating Degree Days37 (Base 65)
Averaged from 28 records on February 24, 2014
WEATHER CONDITIONS BREAKOUT
WIND DIRECTION BREAKOUT
WEATHER BY HOUR - FEBRUARY 24, 2014
[ °C ]   °F
Local TimeTemperatureDewpointHumidityBarometerVisibilityWind DirectionWind SpeedGust SpeedPrecipitationEventsConditions
1:52 AM35.1 °F10.9 °F37 %29.78 in10.0 miWNW (300°)8.1 mphClear
2:52 AM34.0 °F10.0 °F37 %29.78 in10.0 miWNW (290°)12.7 mph18.4 mphClear
3:52 AM30.9 °F10.0 °F42 %29.79 in10.0 miWNW (300°)11.5 mph23.0 mphClear
4:52 AM30.0 °F9.0 °F41 %29.81 in10.0 miWNW (300°)10.4 mphClear
5:52 AM27.0 °F12.9 °F56 %29.82 in10.0 miWNW (290°)13.8 mph20.7 mphClear
6:52 AM26.1 °F12.9 °F58 %29.82 in10.0 miWSW (250°)5.8 mphPartly Cloudy
7:52 AM27.0 °F12.0 °F53 %29.83 in10.0 miWest (260°)11.5 mphScattered Clouds
8:52 AM28.0 °F12.9 °F53 %29.83 in10.0 miWNW (300°)11.5 mph21.9 mphClear
9:52 AM28.9 °F12.0 °F49 %29.83 in10.0 miWest (280°)16.1 mph21.9 mph0.00 inMostly Cloudy
10:52 AM28.0 °F10.0 °F47 %29.82 in10.0 miWest (270°)11.5 mph24.2 mphOvercast
11:52 AM28.9 °F10.0 °F45 %29.81 in10.0 miWSW (250°)13.8 mph28.8 mphMostly Cloudy
12:52 PM28.0 °F8.1 °F43 %29.79 in10.0 miWest (280°)17.3 mph26.5 mphOvercast
1:52 PM28.0 °F7.0 °F41 %29.79 in10.0 miWNW (300°)17.3 mph23.0 mphMostly Cloudy
2:52 PM28.9 °F3.9 °F35 %29.80 in10.0 miWNW (300°)17.3 mph32.2 mphMostly Cloudy
3:52 PM27.0 °F7.0 °F43 %29.81 in10.0 miWNW (300°)18.4 mph29.9 mphScattered Clouds
4:52 PM26.1 °F9.0 °F49 %29.84 in10.0 miWNW (300°)17.3 mph27.6 mph0.00 inMostly Cloudy
5:04 PM24.1 °F15.1 °F69 %29.83 in1.8 miWNW (300°)18.4 mph31.1 mph0.00 inSnowLight Snow
5:09 PM23.0 °F15.1 °F72 %29.83 in1.2 miWest (280°)21.9 mph31.1 mph0.00 inSnowLight Snow
5:19 PM23.0 °F15.1 °F72 %29.84 in2.0 miWNW (290°)17.3 mph26.5 mph0.00 inSnowLight Snow
5:28 PM24.1 °F12.9 °F62 %29.84 in8.0 miWNW (290°)13.8 mph25.3 mph0.00 inOvercast
5:39 PM24.1 °F9.0 °F53 %29.84 in10.0 miWNW (300°)21.9 mph29.9 mph0.00 inOvercast
5:52 PM24.1 °F6.1 °F46 %29.87 in10.0 miWNW (290°)13.8 mph24.2 mph0.00 inOvercast
6:52 PM23.0 °F3.9 °F44 %29.91 in10.0 miWNW (300°)13.8 mph35.7 mphClear
7:52 PM21.9 °F3.9 °F46 %29.93 in10.0 miWNW (290°)17.3 mph33.4 mphOvercast
8:52 PM21.9 °F6.1 °F51 %29.94 in10.0 miWest (280°)17.3 mph32.2 mphOvercast
9:52 PM21.0 °F7.0 °F55 %29.95 in10.0 miWNW (290°)10.4 mph23.0 mphOvercast
10:52 PM21.0 °F7.0 °F55 %29.95 in10.0 miWNW (290°)15.0 mphOvercast
11:52 PM21.0 °F7.0 °F55 %29.96 in10.0 miWest (280°)13.8 mph21.9 mphMostly Cloudy
Hourly data recorded from KORE, located miles away from Shelburne Falls, Massachusetts







STORIES FROM OUR PARTNERS